Location: Edinburgh
(55.9500°N, 3.1600°W)
Time: 06:08:57
(UTC+01:00)

ISS - Pass Details

Date: 07 October 2017
Orbit: 401 x 408 km, 51.6° (Epoch: 20 October)

Event Time Altitude Azimuth Distance (km) Brightness Sun altitude
Rises 19:26:23 0° 261° (W) 2,325 2.0 -8.4°
Reaches altitude 10° 19:28:32 10° 253° (WSW) 1,466 0.3 -8.7°
Maximum altitude 19:31:36 38° 184° (S) 636 -2.8 -9.2°
Enters shadow 19:34:21 12° 116° (ESE) 1,335 -1.8 -9.6°
